Regional Weather Roundup
Issued by NWS

Home | Current Version | Previous Version | Graphics & Text | Print | Product List | Glossary On
Versions: 1 2 3 4 5 6 7 8 9 10 11 12 13 14 15 16 17 18 19 20 21 22 23 24 25 26 27 28 29 30 31 32 33 34 35 36 37 38 39 40 41 42 43 44 45 46 47 48 49 50
000
ASUS43 KFSD 170502
RWRSD

WEATHER ROUNDUP FOR SOUTH DAKOTA
NATIONAL WEATHER SERVICE SIOUX FALLS SD
1200 AM CDT TUE OCT 17 2017

NOTE: "FAIR" INDICATES FEW OR NO CLOUDS BELOW 12,000 FEET WITH NO
SIGNIFICANT WEATHER AND/OR OBSTRUCTIONS TO VISIBILITY.


SDZ001>005-009-010-012>017-170600-
NORTHWEST AND NORTH CENTRAL SOUTH DAKOTA

CITY           SKY/WX    TMP DP  RH WIND       PRES   REMARKS
BUFFALO          N/A     47  27  45 W7        29.99S
FAITH            N/A     55  28  35 W5        30.05S
MOBRIDGE       CLEAR     41  33  73 N3        29.98S
$$

SDZ012>016-024>037-041>051-057-063-072>074-170600-
SOUTHWEST AND SOUTH CENTRAL SOUTH DAKOTA

CITY           SKY/WX    TMP DP  RH WIND       PRES   REMARKS
RAPID CTY ARPT CLEAR     43  29  57 W6        30.10F
PIERRE         CLEAR     51  37  58 SW8       30.02S
CUSTER         CLEAR     46  20  35 VRB6      30.20S
ELLSWORTH AFB  CLEAR     45  28  52 W7        30.10S
PHILIP         CLEAR     42  36  79 W7        30.07S
PINE RIDGE     CLEAR     36  31  82 CALM      30.13S
SPEARFISH      FAIR      48  27  43 CALM      30.12F
WINNER         FAIR      49  38  65 SW9       30.06S
$$

SDZ004>011-016>023-039-040-170600-
NORTHEAST SOUTH DAKOTA

CITY           SKY/WX    TMP DP  RH WIND       PRES   REMARKS
ABERDEEN       CLEAR     39  36  89 NW3       29.98S
WATERTOWN      CLEAR     48  41  76 SW12      29.98S
BROOKINGS      CLEAR     48  39  71 SW5       30.00S
SISSETON         N/A     52  41  66 W7        29.94S
$$

SDZ017-020-022-023-036>040-048>070-170600-
SOUTHEAST SOUTH DAKOTA

CITY           SKY/WX    TMP DP  RH WIND       PRES   REMARKS
SIOUX FALLS    CLEAR     47  40  76 CALM      30.01F
HURON          CLEAR     46  40  79 W3        29.99F
MITCHELL       CLEAR     48  43  82 SW6       30.01S
YANKTON        CLEAR     52  41  66 N5        30.02S
$$

ABBREVIATIONS USED IN REMARKS
   TC - TEMPERATURE IN CELSIUS
  WCI - WIND CHILL INDEX
   HX - HEAT INDEX
  VSB - VISIBILITY





USA.gov is the U.S. government's official web portal to all federal, state and local government web resources and services.